Location: Gro� Glienicke
(52.4675°N, 13.1079°E)
Time: 17:49:28
(UTC+00:00)

Cosmos 923 Rocket - Pass Details

Date: 06 July 2020
Orbit: 757 x 786 km, 74.0° (Epoch: 13 August)

Event Time Altitude Azimuth Distance (km) Brightness Sun altitude
Exits shadow 21:16:29 10° 183° (S) 2,316 6.0 -10.8°
Reaches altitude 10° 21:16:31 10° 183° (S) 2,303 6.0 -10.8°
Maximum altitude 21:21:35 53° 108° (ESE) 946 4.2 -11.2°
Drops below altitude 10° 21:26:44 10° 33° (NNE) 2,338 7.0 -11.5°
Sets 21:29:11 0° 29° (NNE) 3,275 7.8 -11.7°
